Time,TemperatureF,DewpointF,PressureIn,WindDirection,WindDirectionDegrees,WindSpeedMPH,WindSpeedGustMPH,Humidity,HourlyPrecipIn,Conditions,Clouds,dailyrainin,SoftwareType,DateUTC
2013-01-09 00:00:00,39.0,-99.9,30.24,South,180,14.0,17.0,-999,-99.99,,,-99.99,,2013-01-09 05:00:00,
2013-01-09 00:03:00,38.0,-99.9,30.24,South,190,14.0,21.0,-999,-99.99,,,-99.99,,2013-01-09 05:03:00,
2013-01-09 00:12:00,38.0,-99.9,30.24,South,190,14.0,21.0,-999,-99.99,,,-99.99,,2013-01-09 05:12:00,
2013-01-09 00:22:00,39.0,-99.9,30.24,South,180,14.0,17.0,-999,-99.99,,,-99.99,,2013-01-09 05:22:00,
2013-01-09 00:33:00,39.0,-99.9,30.24,South,180,14.0,17.0,-999,-99.99,,,-99.99,,2013-01-09 05:33:00,
2013-01-09 00:43:00,39.0,-99.9,30.24,South,180,14.0,17.0,-999,-99.99,,,-99.99,,2013-01-09 05:43:00,
2013-01-09 00:53:00,39.0,-99.9,30.24,South,180,14.0,17.0,-999,-99.99,,,-99.99,,2013-01-09 05:53:00,
2013-01-09 01:22:00,38.0,-99.9,30.22,South,180,13.0,15.0,-999,-99.99,,,-99.99,,2013-01-09 06:22:00,
2013-01-09 01:32:00,38.0,-99.9,30.22,South,180,13.0,15.0,-999,-99.99,,,-99.99,,2013-01-09 06:32:00,
2013-01-09 01:43:00,38.0,-99.9,30.22,South,180,13.0,15.0,-999,-99.99,,,-99.99,,2013-01-09 06:43:00,
2013-01-09 01:53:00,37.0,-99.9,30.21,South,180,16.0,21.0,-999,-99.99,,,-99.99,,2013-01-09 06:53:00,
2013-01-09 02:02:00,37.0,-99.9,30.21,South,180,16.0,21.0,-999,-99.99,,,-99.99,,2013-01-09 07:02:00,
2013-01-09 02:12:00,37.0,-99.9,30.21,South,180,16.0,21.0,-999,-99.99,,,-99.99,,2013-01-09 07:12:00,
2013-01-09 02:22:00,38.0,-99.9,30.21,South,180,17.0,21.0,-999,-99.99,,,-99.99,,2013-01-09 07:22:00,
2013-01-09 02:32:00,38.0,-99.9,30.21,South,180,17.0,21.0,-999,-99.99,,,-99.99,,2013-01-09 07:32:00,
2013-01-09 02:43:00,38.0,-99.9,30.21,South,180,17.0,21.0,-999,-99.99,,,-99.99,,2013-01-09 07:43:00,
2013-01-09 02:53:00,38.0,-99.9,30.21,South,180,17.0,21.0,-999,-99.99,,,-99.99,,2013-01-09 07:53:00,
2013-01-09 03:02:00,38.0,-99.9,30.20,South,180,16.0,21.0,-999,-99.99,,,-99.99,,2013-01-09 08:02:00,
2013-01-09 03:12:00,38.0,-99.9,30.20,South,180,16.0,21.0,-999,-99.99,,,-99.99,,2013-01-09 08:12:00,
2013-01-09 03:22:00,38.0,-99.9,30.19,South,180,17.0,22.0,-999,-99.99,,,-99.99,,2013-01-09 08:22:00,
2013-01-09 03:33:00,38.0,-99.9,30.19,South,180,17.0,22.0,-999,-99.99,,,-99.99,,2013-01-09 08:33:00,
2013-01-09 03:43:00,38.0,-99.9,30.19,South,180,17.0,22.0,-999,-99.99,,,-99.99,,2013-01-09 08:43:00,
2013-01-09 03:53:00,38.0,-99.9,30.19,South,180,17.0,22.0,-999,-99.99,,,-99.99,,2013-01-09 08:53:00,
2013-01-09 04:00:00,38.0,-99.9,30.18,South,190,16.0,20.0,-999,-99.99,,,-99.99,,2013-01-09 09:00:00,
2013-01-09 04:03:00,38.0,-99.9,30.18,South,180,16.0,22.0,-999,-99.99,,,-99.99,,2013-01-09 09:03:00,
2013-01-09 04:12:00,38.0,-99.9,30.18,South,180,16.0,22.0,-999,-99.99,,,-99.99,,2013-01-09 09:12:00,
2013-01-09 04:22:00,38.0,-99.9,30.18,South,190,16.0,20.0,-999,-99.99,,,-99.99,,2013-01-09 09:22:00,
2013-01-09 04:32:00,38.0,-99.9,30.18,South,190,16.0,20.0,-999,-99.99,,,-99.99,,2013-01-09 09:32:00,
2013-01-09 04:42:00,38.0,-99.9,30.18,South,190,16.0,20.0,-999,-99.99,,,-99.99,,2013-01-09 09:42:00,
2013-01-09 04:54:00,38.0,-99.9,30.18,South,190,16.0,20.0,-999,-99.99,,,-99.99,,2013-01-09 09:54:00,
2013-01-09 05:12:00,39.0,-99.9,30.17,South,190,17.0,21.0,-999,-99.99,,,-99.99,,2013-01-09 10:12:00,
2013-01-09 05:22:00,39.0,-99.9,30.16,South,190,20.0,25.0,-999,-99.99,,,-99.99,,2013-01-09 10:22:00,
2013-01-09 05:32:00,39.0,-99.9,30.16,South,190,20.0,25.0,-999,-99.99,,,-99.99,,2013-01-09 10:32:00,
2013-01-09 05:42:00,39.0,-99.9,30.16,South,190,20.0,25.0,-999,-99.99,,,-99.99,,2013-01-09 10:42:00,
2013-01-09 05:53:00,39.0,-99.9,30.14,South,180,20.0,28.0,-999,-99.99,,,-99.99,,2013-01-09 10:53:00,
2013-01-09 06:02:00,39.0,-99.9,30.14,South,180,20.0,28.0,-999,-99.99,,,-99.99,,2013-01-09 11:02:00,
2013-01-09 06:12:00,39.0,-99.9,30.14,South,180,20.0,28.0,-999,-99.99,,,-99.99,,2013-01-09 11:12:00,
2013-01-09 06:22:00,40.0,-99.9,30.13,South,180,20.0,25.0,-999,-99.99,,,-99.99,,2013-01-09 11:22:00,
2013-01-09 06:33:00,40.0,-99.9,30.13,South,180,20.0,25.0,-999,-99.99,,,-99.99,,2013-01-09 11:33:00,
2013-01-09 06:43:00,40.0,-99.9,30.13,South,180,20.0,25.0,-999,-99.99,,,-99.99,,2013-01-09 11:43:00,
2013-01-09 06:53:00,40.0,-99.9,30.12,South,180,21.0,31.0,-999,-99.99,,,-99.99,,2013-01-09 11:53:00,
2013-01-09 07:03:00,40.0,-99.9,30.11,South,180,21.0,-999.0,-999,-99.99,,,-99.99,,2013-01-09 12:03:00,
2013-01-09 07:13:00,40.0,-99.9,30.11,South,180,21.0,-999.0,-999,-99.99,,,-99.99,,2013-01-09 12:13:00,
2013-01-09 07:23:00,42.0,-99.9,30.12,South,190,23.0,29.0,-999,-99.99,,,-99.99,,2013-01-09 12:23:00,
2013-01-09 07:33:00,42.0,-99.9,30.12,South,190,23.0,29.0,-999,-99.99,,,-99.99,,2013-01-09 12:33:00,
2013-01-09 07:43:00,42.0,-99.9,30.12,South,190,23.0,29.0,-999,-99.99,,,-99.99,,2013-01-09 12:43:00,
2013-01-09 07:53:00,42.0,-99.9,30.12,South,190,23.0,29.0,-999,-99.99,,,-99.99,,2013-01-09 12:53:00,
2013-01-09 08:03:00,42.0,-99.9,30.13,SSW,210,26.0,-999.0,-999,-99.99,,,-99.99,,2013-01-09 13:03:00,
2013-01-09 08:12:00,42.0,-99.9,30.13,SSW,210,26.0,-999.0,-999,-99.99,,,-99.99,,2013-01-09 13:12:00,
2013-01-09 08:23:00,42.0,-99.9,30.11,SSW,210,23.0,31.0,-999,-99.99,,,-99.99,,2013-01-09 13:23:00,
2013-01-09 08:33:00,42.0,-99.9,30.11,SSW,210,23.0,31.0,-999,-99.99,,,-99.99,,2013-01-09 13:33:00,
2013-01-09 08:43:00,42.0,-99.9,30.11,SSW,210,23.0,31.0,-999,-99.99,,,-99.99,,2013-01-09 13:43:00,
2013-01-09 08:53:00,42.0,-99.9,30.12,SSW,200,25.0,30.0,-999,-99.99,,,-99.99,,2013-01-09 13:53:00,
2013-01-09 09:03:00,42.0,-99.9,30.12,SSW,200,25.0,30.0,-999,-99.99,,,-99.99,,2013-01-09 14:03:00,
2013-01-09 09:12:00,42.0,-99.9,30.14,SW,220,23.0,-999.0,-999,-99.99,,,-99.99,,2013-01-09 14:12:00,
2013-01-09 09:23:00,41.0,-99.9,30.11,SSW,200,20.0,26.0,-999,-99.99,,,-99.99,,2013-01-09 14:23:00,
2013-01-09 09:33:00,41.0,-99.9,30.11,SSW,200,20.0,26.0,-999,-99.99,,,-99.99,,2013-01-09 14:33:00,
2013-01-09 09:44:00,41.0,-99.9,30.11,SSW,200,20.0,26.0,-999,-99.99,,,-99.99,,2013-01-09 14:44:00,
2013-01-09 09:53:00,41.0,-99.9,30.11,SSW,200,20.0,26.0,-999,-99.99,,,-99.99,,2013-01-09 14:53:00,
2013-01-09 10:04:00,40.0,-99.9,30.11,SSW,200,16.0,20.0,-999,-99.99,,,-99.99,,2013-01-09 15:04:00,
2013-01-09 10:13:00,40.0,-99.9,30.11,SSW,200,16.0,20.0,-999,-99.99,,,-99.99,,2013-01-09 15:13:00,
2013-01-09 10:23:00,41.0,-99.9,30.12,SSW,210,20.0,24.0,-999,-99.99,,,-99.99,,2013-01-09 15:23:00,
2013-01-09 10:33:00,41.0,-99.9,30.12,SSW,210,20.0,24.0,-999,-99.99,,,-99.99,,2013-01-09 15:33:00,
2013-01-09 10:43:00,42.0,-99.9,30.11,SSW,210,22.0,29.0,-999,-99.99,,,-99.99,,2013-01-09 15:43:00,
2013-01-09 10:53:00,42.0,-99.9,30.11,SSW,210,22.0,29.0,-999,-99.99,,,-99.99,,2013-01-09 15:53:00,
2013-01-09 11:04:00,42.0,-99.9,30.11,SSW,210,22.0,29.0,-999,-99.99,,,-99.99,,2013-01-09 16:04:00,
2013-01-09 11:12:00,42.0,-99.9,30.11,SSW,210,21.0,-999.0,-999,-99.99,,,-99.99,,2013-01-09 16:12:00,
2013-01-09 11:23:00,44.0,-99.9,30.11,SW,220,18.0,28.0,-999,-99.99,,,-99.99,,2013-01-09 16:23:00,
2013-01-09 11:34:00,44.0,-99.9,30.11,SW,220,18.0,28.0,-999,-99.99,,,-99.99,,2013-01-09 16:34:00,
2013-01-09 11:43:00,44.0,-99.9,30.11,SW,220,18.0,28.0,-999,-99.99,,,-99.99,,2013-01-09 16:43:00,
2013-01-09 11:53:00,44.0,-99.9,30.11,SW,220,18.0,28.0,-999,-99.99,,,-99.99,,2013-01-09 16:53:00,
2013-01-09 12:03:00,44.0,-99.9,30.11,SW,230,25.0,-999.0,-999,-99.99,,,-99.99,,2013-01-09 17:03:00,
2013-01-09 12:12:00,44.0,-99.9,30.11,SW,230,25.0,-999.0,-999,-99.99,,,-99.99,,2013-01-09 17:12:00,
2013-01-09 12:23:00,45.0,-99.9,30.11,WSW,250,23.0,34.0,-999,-99.99,,,-99.99,,2013-01-09 17:23:00,
2013-01-09 12:33:00,45.0,-99.9,30.11,WSW,250,23.0,34.0,-999,-99.99,,,-99.99,,2013-01-09 17:33:00,
2013-01-09 12:43:00,45.0,-99.9,30.11,WSW,250,23.0,34.0,-999,-99.99,,,-99.99,,2013-01-09 17:43:00,
2013-01-09 12:53:00,45.0,-99.9,30.10,West,260,30.0,-999.0,-999,-99.99,,,-99.99,,2013-01-09 17:53:00,
2013-01-09 13:03:00,45.0,-99.9,30.10,West,260,30.0,-999.0,-999,-99.99,,,-99.99,,2013-01-09 18:03:00,
2013-01-09 13:13:00,44.0,-99.9,30.10,West,260,28.0,-999.0,-999,-99.99,,,-99.99,,2013-01-09 18:13:00,
2013-01-09 13:24:00,44.0,-99.9,30.10,West,260,25.0,36.0,-999,-99.99,,,-99.99,,2013-01-09 18:24:00,
2013-01-09 13:33:00,44.0,-99.9,30.10,West,260,25.0,36.0,-999,-99.99,,,-99.99,,2013-01-09 18:33:00,
2013-01-09 13:53:00,43.0,-99.9,30.09,West,270,30.0,-999.0,-999,-99.99,,,-99.99,,2013-01-09 18:53:00,
2013-01-09 14:03:00,43.0,-99.9,30.09,West,270,30.0,-999.0,-999,-99.99,,,-99.99,,2013-01-09 19:03:00,
2013-01-09 14:13:00,43.0,-99.9,30.09,West,260,30.0,-999.0,-999,-99.99,,,-99.99,,2013-01-09 19:13:00,
2013-01-09 14:23:00,43.0,-99.9,30.09,West,260,30.0,-999.0,-999,-99.99,,,-99.99,,2013-01-09 19:23:00,
2013-01-09 14:33:00,43.0,-99.9,30.09,West,260,30.0,-999.0,-999,-99.99,,,-99.99,,2013-01-09 19:33:00,
2013-01-09 14:53:00,41.0,-99.9,30.12,West,260,25.0,31.0,-999,-99.99,,,-99.99,,2013-01-09 19:53:00,
2013-01-09 15:03:00,41.0,-99.9,30.12,West,260,25.0,31.0,-999,-99.99,,,-99.99,,2013-01-09 20:03:00,
2013-01-09 15:12:00,41.0,-99.9,30.12,West,260,25.0,31.0,-999,-99.99,,,-99.99,,2013-01-09 20:12:00,
2013-01-09 15:23:00,41.0,-99.9,30.12,West,260,25.0,31.0,-999,-99.99,,,-99.99,,2013-01-09 20:23:00,
2013-01-09 15:33:00,42.0,-99.9,30.12,West,260,24.0,-999.0,-999,-99.99,,,-99.99,,2013-01-09 20:33:00,
2013-01-09 16:13:00,43.0,-99.9,30.14,West,260,30.0,-999.0,-999,-99.99,,,-99.99,,2013-01-09 21:13:00,
2013-01-09 16:23:00,43.0,-99.9,30.16,West,270,28.0,32.0,-999,-99.99,,,-99.99,,2013-01-09 21:23:00,
2013-01-09 16:33:00,43.0,-99.9,30.16,West,270,28.0,32.0,-999,-99.99,,,-99.99,,2013-01-09 21:33:00,
2013-01-09 16:43:00,43.0,-99.9,30.16,West,270,28.0,32.0,-999,-99.99,,,-99.99,,2013-01-09 21:43:00,
2013-01-09 16:53:00,43.0,-99.9,30.18,West,260,30.0,30.0,-999,-99.99,,,-99.99,,2013-01-09 21:53:00,
2013-01-09 17:03:00,43.0,-99.9,30.18,West,260,30.0,30.0,-999,-99.99,,,-99.99,,2013-01-09 22:03:00,
2013-01-09 17:13:00,43.0,-99.9,30.18,West,260,26.0,-999.0,-999,-99.99,,,-99.99,,2013-01-09 22:13:00,
2013-01-09 17:23:00,42.0,-99.9,30.19,West,260,28.0,34.0,-999,-99.99,,,-99.99,,2013-01-09 22:23:00,
2013-01-09 17:33:00,42.0,-99.9,30.19,West,260,28.0,34.0,-999,-99.99,,,-99.99,,2013-01-09 22:33:00,
2013-01-09 17:43:00,42.0,-99.9,30.19,West,260,28.0,34.0,-999,-99.99,,,-99.99,,2013-01-09 22:43:00,
2013-01-09 17:53:00,43.0,-99.9,30.18,West,260,31.0,40.0,-999,-99.99,,,-99.99,,2013-01-09 22:53:00,
2013-01-09 18:03:00,43.0,-99.9,30.18,West,260,31.0,40.0,-999,-99.99,,,-99.99,,2013-01-09 23:03:00,
2013-01-09 18:13:00,43.0,-99.9,30.18,West,260,31.0,40.0,-999,-99.99,,,-99.99,,2013-01-09 23:13:00,
2013-01-09 18:23:00,43.0,-99.9,30.21,West,260,30.0,37.0,-999,-99.99,,,-99.99,,2013-01-09 23:23:00,
2013-01-09 18:33:00,43.0,-99.9,30.21,West,260,30.0,37.0,-999,-99.99,,,-99.99,,2013-01-09 23:33:00,
2013-01-09 18:43:00,43.0,-99.9,30.21,West,260,30.0,37.0,-999,-99.99,,,-99.99,,2013-01-09 23:43:00,
2013-01-09 18:53:00,42.0,-99.9,30.22,West,260,30.0,30.0,-999,-99.99,,,-99.99,,2013-01-09 23:53:00,
2013-01-09 19:03:00,42.0,-99.9,30.22,West,260,30.0,30.0,-999,-99.99,,,-99.99,,2013-01-10 00:03:00,
2013-01-09 19:12:00,42.0,-99.9,30.22,West,260,30.0,30.0,-999,-99.99,,,-99.99,,2013-01-10 00:12:00,
2013-01-09 19:22:00,42.0,-99.9,30.22,West,260,30.0,30.0,-999,-99.99,,,-99.99,,2013-01-10 00:22:00,
2013-01-09 19:53:00,42.0,-99.9,30.27,West,260,30.0,30.0,-999,-99.99,,,-99.99,,2013-01-10 00:53:00,
2013-01-09 20:03:00,42.0,-99.9,30.27,West,260,30.0,30.0,-999,-99.99,,,-99.99,,2013-01-10 01:03:00,
2013-01-09 20:12:00,42.0,-99.9,30.27,West,260,30.0,30.0,-999,-99.99,,,-99.99,,2013-01-10 01:12:00,
2013-01-09 20:22:00,42.0,-99.9,30.29,West,260,29.0,40.0,-999,-99.99,,,-99.99,,2013-01-10 01:22:00,
2013-01-09 20:33:00,42.0,-99.9,30.29,West,260,29.0,40.0,-999,-99.99,,,-99.99,,2013-01-10 01:33:00,
2013-01-09 20:43:00,42.0,-99.9,30.29,West,260,29.0,40.0,-999,-99.99,,,-99.99,,2013-01-10 01:43:00,
2013-01-09 20:53:00,42.0,-99.9,30.29,West,260,29.0,40.0,-999,-99.99,,,-99.99,,2013-01-10 01:53:00,
2013-01-09 21:00:00,40.0,-99.9,30.33,West,260,24.0,29.0,-999,-99.99,,,-99.99,,2013-01-10 02:00:00,
2013-01-09 21:03:00,40.0,-99.9,30.31,West,260,26.0,-999.0,-999,-99.99,,,-99.99,,2013-01-10 02:03:00,
2013-01-09 21:13:00,40.0,-99.9,30.31,West,260,26.0,-999.0,-999,-99.99,,,-99.99,,2013-01-10 02:13:00,
2013-01-09 21:22:00,40.0,-99.9,30.33,West,260,24.0,29.0,-999,-99.99,,,-99.99,,2013-01-10 02:22:00,
2013-01-09 21:33:00,40.0,-99.9,30.33,West,260,24.0,29.0,-999,-99.99,,,-99.99,,2013-01-10 02:33:00,
2013-01-09 21:43:00,40.0,-99.9,30.33,West,260,24.0,29.0,-999,-99.99,,,-99.99,,2013-01-10 02:43:00,
2013-01-09 21:53:00,40.0,-99.9,30.33,West,260,24.0,29.0,-999,-99.99,,,-99.99,,2013-01-10 02:53:00,
2013-01-09 22:00:00,39.0,-99.9,30.38,West,280,17.0,22.0,-999,-99.99,,,-99.99,,2013-01-10 03:00:00,
2013-01-09 22:12:00,39.0,-99.9,30.37,West,260,18.0,25.0,-999,-99.99,,,-99.99,,2013-01-10 03:12:00,
2013-01-09 22:22:00,39.0,-99.9,30.38,West,280,17.0,22.0,-999,-99.99,,,-99.99,,2013-01-10 03:22:00,
2013-01-09 22:33:00,39.0,-99.9,30.38,West,280,17.0,22.0,-999,-99.99,,,-99.99,,2013-01-10 03:33:00,
2013-01-09 22:43:00,39.0,-99.9,30.38,West,280,17.0,22.0,-999,-99.99,,,-99.99,,2013-01-10 03:43:00,
2013-01-09 22:53:00,39.0,-99.9,30.38,West,280,17.0,22.0,-999,-99.99,,,-99.99,,2013-01-10 03:53:00,
2013-01-09 23:00:00,38.0,-99.9,30.42,West,260,11.0,15.0,-999,-99.99,,,-99.99,,2013-01-10 04:00:00,
2013-01-09 23:22:00,38.0,-99.9,30.42,West,260,11.0,15.0,-999,-99.99,,,-99.99,,2013-01-10 04:22:00,
2013-01-09 23:32:00,38.0,-99.9,30.42,West,260,11.0,15.0,-999,-99.99,,,-99.99,,2013-01-10 04:32:00,
2013-01-09 23:43:00,38.0,-99.9,30.42,West,260,11.0,15.0,-999,-99.99,,,-99.99,,2013-01-10 04:43:00,
2013-01-09 23:53:00,38.0,-99.9,30.42,West,260,11.0,15.0,-999,-99.99,,,-99.99,,2013-01-10 04:53:00,